Weather in Zolskoye

Russia / The Kabardino-Balkar Republic     43°50′26″N   43°12′05″E
temp.,
°C
wind,
m/s
gust,
m/s
humid.,
%
clouds,
%
prec.,
mm/h
press.,
hPa
HPBL,
m
2 july, sat
sat200:00+16wsw458392 0.1 101269
03:00+16wsw447786 0.1 101165
06:00+16wsw3475100 0.0 101175
09:00+16nw5107686 0.4 1012510
12:00+19nnw796396 0.4 10121471
15:00+21nw811585 1.2 10121922
18:00+17nnw811651 0.1 10131032
21:00+13wnw512590 0.1 1016524
3 july, sun
sun300:00+11w48720 0.0 1016149
03:00+10wsw47710 0.0 1016117
06:00+11wsw34710 0.0 101683
09:00+17nw57550 0.0 10151285
12:00+20nw78521 0.0 10151557
15:00+20nnw795318 0.0 10141763
18:00+18nw59658 0.1 1015666
21:00+13wsw57745 0.1 1018101
4 july, mon
mon400:00+13wsw57700 0.0 101789
03:00+12wsw55629 0.0 101764
06:00+13wsw34694 0.0 101758
09:00+20nw11470 0.0 1017977
12:00+22w01441 0.0 10162081
15:00+23nw22424 0.0 10152127
18:00+22nw23611 0.0 1015270
21:00+16wsw336710 0.0 101729
5 july, tue
tue500:00+15wsw43670 0.0 101738
03:00+14wsw43670 0.0 101741
06:00+15wsw44720 0.0 101765
09:00+21n11510 0.0 10171247
12:00+24e11460 0.0 10161927
15:00+25se124210 0.0 10152138
18:00+24ne235871 0.0 1015312
21:00+19se1150100 0.0 101711
6 july, wed
wed600:00+15sw33657 0.0 101823
03:00+14sw33670 0.0 101721
06:00+15sw22740 0.0 101733
09:00+20e57540 0.0 1017709
12:00+23ese78450 0.0 10161759
15:00+25se68430 0.0 10152155
18:00+22se59600 0.0 1015357
21:00+16se23660 0.0 101753